TimeEST,TemperatureF,Dew PointF,Humidity,Sea Level PressureIn,VisibilityMPH,Wind Direction,Wind SpeedMPH,Gust SpeedMPH,PrecipitationIn,Events,Conditions,WindDirDegrees,DateUTC
12:15 AM,2.8,-0.4,86,30.37,10.0,ENE,6.9,-,N/A,,Overcast,60,2014-01-02 05:15:00
12:35 AM,3.0,-0.0,87,30.37,7.0,NE,5.8,-,N/A,Snow,Light Snow,50,2014-01-02 05:35:00
12:56 AM,2.3,-0.9,86,30.36,10.0,NE,8.1,-,N/A,,Overcast,40,2014-01-02 05:56:00
1:15 AM,1.4,-1.8,86,30.36,10.0,ENE,8.1,-,N/A,,Overcast,60,2014-01-02 06:15:00
1:35 AM,1.2,-1.8,87,30.35,10.0,ENE,9.2,-,N/A,,Overcast,60,2014-01-02 06:35:00
1:56 AM,1.4,-1.3,88,30.36,10.0,ENE,10.4,-,N/A,,Overcast,60,2014-01-02 06:56:00
2:15 AM,1.0,-2.2,86,30.36,10.0,ENE,11.5,-,N/A,,Overcast,60,2014-01-02 07:15:00
2:36 AM,0.9,-2.6,86,30.35,10.0,ENE,9.2,-,N/A,,Mostly Cloudy,60,2014-01-02 07:36:00
2:56 AM,1.2,-1.5,88,30.35,10.0,East,8.1,-,N/A,,Mostly Cloudy,80,2014-01-02 07:56:00
3:15 AM,3.0,-0.0,87,30.35,10.0,ENE,9.2,-,N/A,,Overcast,70,2014-01-02 08:15:00
3:36 AM,2.5,-0.6,87,30.34,7.0,ENE,10.4,-,N/A,,Overcast,60,2014-01-02 08:36:00
3:55 AM,1.0,-1.8,88,30.34,10.0,ENE,10.4,-,N/A,,Overcast,70,2014-01-02 08:55:00
4:16 AM,2.3,-0.6,88,30.34,10.0,ENE,11.5,16.1,N/A,,Overcast,70,2014-01-02 09:16:00
4:36 AM,-0.0,-3.6,85,30.33,10.0,NE,13.8,-,N/A,,Overcast,50,2014-01-02 09:36:00
4:55 AM,-0.6,-4.5,83,30.33,10.0,ENE,9.2,-,N/A,,Overcast,70,2014-01-02 09:55:00
5:15 AM,1.0,-2.0,87,30.32,10.0,ENE,9.2,16.1,N/A,,Overcast,70,2014-01-02 10:15:00
5:36 AM,1.8,-1.5,86,30.31,10.0,ENE,11.5,-,N/A,,Overcast,60,2014-01-02 10:36:00
5:55 AM,-0.4,-4.2,84,30.30,10.0,ENE,11.5,-,N/A,,Overcast,60,2014-01-02 10:55:00
6:15 AM,-0.8,-4.0,86,30.31,10.0,ENE,11.5,-,N/A,,Overcast,60,2014-01-02 11:15:00
6:36 AM,0.5,-2.4,88,30.31,10.0,ENE,10.4,16.1,N/A,,Overcast,70,2014-01-02 11:36:00
6:55 AM,-0.8,-4.4,85,30.31,7.0,NE,12.7,-,N/A,,Overcast,50,2014-01-02 11:55:00
7:15 AM,-2.9,-7.2,82,30.31,10.0,ENE,11.5,-,N/A,,Overcast,60,2014-01-02 12:15:00
7:36 AM,-3.1,-7.1,83,30.31,10.0,ENE,12.7,-,N/A,,Overcast,70,2014-01-02 12:36:00
7:55 AM,-2.4,-5.8,85,30.31,10.0,ENE,10.4,16.1,N/A,,Overcast,70,2014-01-02 12:55:00
8:16 AM,-2.6,-6.3,84,30.31,10.0,NE,12.7,-,N/A,,Overcast,40,2014-01-02 13:16:00
8:35 AM,-4.7,-9.4,80,30.31,10.0,NE,15.0,-,N/A,,Mostly Cloudy,50,2014-01-02 13:35:00
8:55 AM,-4.9,-9.4,81,30.32,10.0,ENE,12.7,-,N/A,,Overcast,60,2014-01-02 13:55:00
9:16 AM,-4.5,-9.0,81,30.31,10.0,ENE,11.5,-,N/A,,Overcast,60,2014-01-02 14:16:00
9:35 AM,-3.3,-7.6,82,30.32,10.0,ENE,12.7,-,N/A,,Overcast,60,2014-01-02 14:35:00
9:55 AM,-3.8,-8.9,79,30.33,10.0,NE,12.7,-,N/A,,Overcast,50,2014-01-02 14:55:00
10:16 AM,-3.5,-7.8,82,30.32,10.0,NE,12.7,-,N/A,,Overcast,50,2014-01-02 15:16:00
10:35 AM,-2.4,-7.1,80,30.32,10.0,NE,11.5,-,N/A,,Overcast,50,2014-01-02 15:35:00
10:55 AM,-3.1,-8.3,78,30.33,10.0,NE,12.7,-,N/A,,Mostly Cloudy,50,2014-01-02 15:55:00
11:16 AM,-3.8,-10.3,74,30.33,10.0,NE,10.4,-,N/A,,Mostly Cloudy,50,2014-01-02 16:16:00
11:35 AM,-3.1,-10.3,71,30.33,10.0,NE,11.5,-,N/A,,Overcast,50,2014-01-02 16:35:00
11:55 AM,-2.4,-9.8,71,30.32,10.0,NE,11.5,-,N/A,,Overcast,40,2014-01-02 16:55:00
12:16 PM,-2.0,-10.3,68,30.32,10.0,NE,10.4,-,N/A,,Overcast,50,2014-01-02 17:16:00
12:35 PM,-1.5,-10.7,65,30.31,10.0,NE,9.2,-,N/A,,Mostly Cloudy,40,2014-01-02 17:35:00
12:56 PM,-0.4,-9.4,66,30.30,10.0,NE,9.2,-,N/A,,Clear,50,2014-01-02 17:56:00
1:15 PM,-0.2,-9.8,64,30.30,10.0,NE,8.1,-,N/A,,Clear,50,2014-01-02 18:15:00
1:35 PM,-0.8,-9.6,66,30.30,10.0,NE,6.9,-,N/A,,Clear,50,2014-01-02 18:35:00
1:56 PM,1.4,-8.7,63,30.29,10.0,NE,6.9,-,N/A,,Clear,40,2014-01-02 18:56:00
2:15 PM,1.2,-8.5,64,30.29,10.0,NE,6.9,-,N/A,,Clear,50,2014-01-02 19:15:00
2:36 PM,1.6,-7.8,65,30.29,10.0,NE,3.5,-,N/A,,Clear,40,2014-01-02 19:36:00
2:56 PM,2.3,-7.6,63,30.29,10.0,NNE,4.6,-,N/A,,Clear,20,2014-01-02 19:56:00
3:15 PM,2.5,-7.6,63,30.29,10.0,NNE,3.5,-,N/A,,Clear,20,2014-01-02 20:15:00
3:36 PM,2.7,-7.8,62,30.30,10.0,NNE,4.6,-,N/A,,Clear,30,2014-01-02 20:36:00
3:56 PM,2.8,-8.1,60,30.30,10.0,NNE,3.5,-,N/A,,Clear,20,2014-01-02 20:56:00
4:15 PM,2.3,-8.5,61,30.30,10.0,North,3.5,-,N/A,,Clear,360,2014-01-02 21:15:00
4:36 PM,1.6,-8.9,62,30.30,10.0,NNE,3.5,-,N/A,,Clear,20,2014-01-02 21:36:00
4:56 PM,1.0,-8.5,64,30.29,10.0,NNE,3.5,-,N/A,,Clear,20,2014-01-02 21:56:00
5:15 PM,-1.1,-9.4,68,30.29,10.0,NNE,5.8,-,N/A,,Clear,20,2014-01-02 22:15:00
5:36 PM,-0.4,-8.3,69,30.30,10.0,NNE,5.8,-,N/A,,Clear,20,2014-01-02 22:36:00
5:56 PM,-1.3,-8.9,70,30.30,10.0,North,5.8,-,N/A,,Clear,360,2014-01-02 22:56:00
6:15 PM,-1.7,-9.0,71,30.31,10.0,North,6.9,-,N/A,,Clear,360,2014-01-02 23:15:00
6:36 PM,-1.7,-9.4,70,30.30,10.0,North,5.8,-,N/A,,Clear,10,2014-01-02 23:36:00
6:55 PM,-1.3,-8.9,70,30.30,10.0,NNE,5.8,-,N/A,,Clear,20,2014-01-02 23:55:00
7:15 PM,-3.1,-9.4,74,30.31,10.0,North,4.6,-,N/A,,Clear,10,2014-01-03 00:15:00
7:36 PM,-4.7,-10.3,77,30.31,10.0,North,4.6,-,N/A,,Clear,360,2014-01-03 00:36:00
7:55 PM,-6.2,-11.2,79,30.30,10.0,North,3.5,-,N/A,,Clear,350,2014-01-03 00:55:00
8:15 PM,-7.2,-11.9,80,30.30,10.0,North,4.6,-,N/A,,Clear,10,2014-01-03 01:15:00
8:36 PM,-7.2,-11.6,81,30.30,10.0,NW,3.5,-,N/A,,Clear,320,2014-01-03 01:36:00
8:55 PM,-8.0,-12.3,81,30.30,10.0,NNW,3.5,-,N/A,,Clear,340,2014-01-03 01:55:00
9:15 PM,-7.6,-11.9,81,30.30,10.0,Calm,Calm,-,N/A,,Clear,0,2014-01-03 02:15:00
9:36 PM,-7.6,-12.1,81,30.30,10.0,WNW,3.5,-,N/A,,Clear,300,2014-01-03 02:36:00
9:55 PM,-7.8,-11.6,84,30.30,10.0,Calm,Calm,-,N/A,,Mostly Cloudy,0,2014-01-03 02:55:00
10:15 PM,-6.9,-11.2,81,30.30,10.0,Calm,Calm,-,N/A,,Mostly Cloudy,0,2014-01-03 03:15:00
10:36 PM,-7.8,-12.1,81,30.31,10.0,WNW,3.5,-,N/A,,Mostly Cloudy,300,2014-01-03 03:36:00
10:55 PM,-6.7,-10.3,84,30.31,10.0,NW,4.6,-,N/A,,Overcast,320,2014-01-03 03:55:00
11:15 PM,-5.8,-10.3,81,30.31,10.0,North,3.5,-,N/A,,Overcast,350,2014-01-03 04:15:00
11:36 PM,-4.0,-7.8,84,30.30,10.0,Calm,Calm,-,N/A,,Overcast,0,2014-01-03 04:36:00
11:55 PM,-5.6,-9.6,83,30.29,10.0,Calm,Calm,-,N/A,,Overcast,0,2014-01-03 04:55:00